SCP
0 0 0 0 0 0 0 0 0 0 0 0 0 0 0 0 0 0 0 0 0 0
0 0 0 0 0 0 0 0 0 0 0 0 0 0 0 0 0 0 0 0 0 0
-0 0 0 -0 -0 0 -0 0 0 0 0 0 0 0 0 0 0 0 0 0 0 0
-0 0 0 -0 -0 -0 -0 0 0 0 0 0 0 0 0 0 0 0 0 0 0 0
0 0 0 0 -0 0 0 0 0 0 0 0 0 0 0 0 0 0 0 0 0 0
0 0 0 0 0 0 0 0 0 0 0 0 0 0 0 0 0 0 0 0 0 0
0 0 0 0 0 0 0 0 0 0 0 0 0 0 0 -0 -0 -0 0 0 0 0
0 0 0 0 0 0 0 0 0 0 0 0 0 0 -0 -0 -0 -0 0 0 0 0
0 0 0 0 0 0 0 0 0 0 0 0 -0 -0 -0 -0 0 0 0 0 0 0
0 0 0 0 0 0 0 0 0 0 0 -0 -0 -0 -0 0 -0 -0 -0 -0 0 0
0 0 0 0 0 0 0 0 0 0 0 -0 -0 -0 -0 0 -0 -0 -0 -0 0 0
0 0 0 0 0 0 0 0 0 0 0 0 -0 -0 -0 -0 -0 -0 0 0 -0 0
0 0 0 0 0 0 0 0 0 0 0 0 0 0 -0 -0 -0 0 -0 -0 -0 -0
0 0 0 0 0 0 0 0 0 0 0 0 -0 0 -0 -0 0 0 0 0 0 -0
Wind_Speed_500mb
57 67 70 63 59 59 54 51 48 47 49 50 52 54 56 59 65 67 76 82 87 81
64 66 65 66 60 50 50 47 42 40 41 47 51 52 54 59 64 63 66 70 76 84
64 59 55 47 32 33 37 37 37 36 38 42 46 50 50 56 59 59 63 62 65 70
57 49 44 30 20 22 27 32 38 39 40 40 42 44 50 56 59 55 58 58 61 65
51 39 28 19 18 19 25 29 36 41 46 43 42 43 47 48 52 54 55 57 58 60
50 37 21 17 19 25 28 29 31 37 38 37 37 36 48 48 53 54 48 49 54 55
49 44 32 24 23 28 26 25 29 30 29 30 27 28 41 38 35 35 39 45 49 51
46 43 41 29 23 23 26 25 27 28 26 29 28 30 32 34 33 30 28 35 43 45
38 43 41 35 27 29 28 27 30 28 28 31 30 32 34 35 36 37 35 36 38 41
33 32 36 39 35 29 27 27 28 27 26 29 33 36 37 37 34 40 45 40 42 45
34 32 28 30 33 34 31 31 33 35 32 35 42 46 44 42 40 39 41 43 43 43
34 34 33 30 30 28 33 32 31 34 35 35 32 36 46 53 49 45 48 49 49 45
33 32 31 31 30 29 27 35 36 30 28 31 30 32 34 22 23 41 48 49 50 54
31 32 32 30 29 28 25 26 30 31 30 25 22 23 25 14 9 21 25 30 28 30
Wind_Direction_500mb
317 312 306 297 290 281 280 287 291 289 281 277 276 275 271 264 259 257 253 250 247 247
321 317 310 301 287 288 275 280 289 292 287 279 276 276 275 266 263 261 260 255 252 249
331 325 326 314 293 278 277 277 279 284 286 286 280 276 274 265 264 264 260 260 256 252
334 335 334 327 313 292 286 282 282 288 288 285 286 280 272 269 259 265 261 259 256 255
347 341 341 333 315 308 302 294 292 292 287 284 286 285 284 274 262 264 260 258 258 256
353 344 333 319 311 297 293 298 298 294 283 286 283 286 289 272 268 256 257 261 261 260
354 353 325 308 315 300 293 304 304 298 286 288 284 291 273 274 255 256 254 261 258 255
354 355 349 322 312 308 305 305 300 299 295 291 281 272 272 284 290 295 281 268 264 262
348 354 357 354 332 308 307 304 299 290 299 298 292 285 283 282 282 280 281 275 269 265
345 344 350 350 346 340 327 316 304 297 300 292 284 282 283 281 275 263 276 275 272 267
341 341 343 336 339 341 339 337 332 326 310 293 289 289 285 277 275 273 271 270 269 270
339 340 339 337 328 330 328 331 329 329 331 329 324 305 287 276 266 264 263 265 267 264
331 335 337 335 332 330 325 322 328 332 326 326 332 335 339 309 266 252 249 253 257 257
325 329 334 335 333 330 328 321 319 327 338 339 340 359 2 6 247 215 224 226 226 248
Wind_Speed_850mb
57 67 70 63 59 59 54 51 48 47 49 50 52 54 56 59 65 67 76 82 87 81
64 66 65 66 60 50 50 47 42 40 41 47 51 52 54 59 64 63 66 70 76 84
64 59 55 47 32 33 37 37 37 36 38 42 46 50 50 56 59 59 63 62 65 70
57 49 44 30 20 22 27 32 38 39 40 40 42 44 50 56 59 55 58 58 61 65
51 39 28 19 18 19 25 29 36 41 46 43 42 43 47 48 52 54 55 57 58 60
50 37 21 17 19 25 28 29 31 37 38 37 37 36 48 48 53 54 48 49 54 55
49 44 32 24 23 28 26 25 29 30 29 30 27 28 41 38 35 35 39 45 49 51
46 43 41 29 23 23 26 25 27 28 26 29 28 30 32 34 33 30 28 35 43 45
38 43 41 35 27 29 28 27 30 28 28 31 30 32 34 35 36 37 35 36 38 41
33 32 36 39 35 29 27 27 28 27 26 29 33 36 37 37 34 40 45 40 42 45
34 32 28 30 33 34 31 31 33 35 32 35 42 46 44 42 40 39 41 43 43 43
34 34 33 30 30 28 33 32 31 34 35 35 32 36 46 53 49 45 48 49 49 45
33 32 31 31 30 29 27 35 36 30 28 31 30 32 34 22 23 41 48 49 50 54
31 32 32 30 29 28 25 26 30 31 30 25 22 23 25 14 9 21 25 30 28 30
Wind_Direction_850mb
317 312 306 297 290 281 280 287 291 289 281 277 276 275 271 264 259 257 253 250 247 247
321 317 310 301 287 288 275 280 289 292 287 279 276 276 275 266 263 261 260 255 252 249
331 325 326 314 293 278 277 277 279 284 286 286 280 276 274 265 264 264 260 260 256 252
334 335 334 327 313 292 286 282 282 288 288 285 286 280 272 269 259 265 261 259 256 255
347 341 341 333 315 308 302 294 292 292 287 284 286 285 284 274 262 264 260 258 258 256
353 344 333 319 311 297 293 298 298 294 283 286 283 286 289 272 268 256 257 261 261 260
354 353 325 308 315 300 293 304 304 298 286 288 284 291 273 274 255 256 254 261 258 255
354 355 349 322 312 308 305 305 300 299 295 291 281 272 272 284 290 295 281 268 264 262
348 354 357 354 332 308 307 304 299 290 299 298 292 285 283 282 282 280 281 275 269 265
345 344 350 350 346 340 327 316 304 297 300 292 284 282 283 281 275 263 276 275 272 267
341 341 343 336 339 341 339 337 332 326 310 293 289 289 285 277 275 273 271 270 269 270
339 340 339 337 328 330 328 331 329 329 331 329 324 305 287 276 266 264 263 265 267 264
331 335 337 335 332 330 325 322 328 332 326 326 332 335 339 309 266 252 249 253 257 257
325 329 334 335 333 330 328 321 319 327 338 339 340 359 2 6 247 215 224 226 226 248